Weather History for Laramie, WY

Change the Weather History Date:

Sunday, November 4, 2012

  Actual Average Record
Temperature  
Mean Temperature 40 °F 35 °F  
Max Temperature 54 °F 47 °F 68 °F (1977)
Min Temperature 26 °F 22 °F -7 °F (1956)
Degree Days  
Heating Degree Days 25 30  
Month to date heating degree days 96 118  
Since 1 July heating degree days 1161 1361  
Cooling Degree Days 0 0  
Month to date cooling degree days 0 0  
Year to date cooling degree days 211 67  
Moisture  
Dew Point 23 °F    
Average Humidity 49    
Maximum Humidity 69    
Minimum Humidity 29    
Precipitation  
Precipitation 0.00 in 0.03 in 0.27 in (1960)
Month to date precipitation 0.00 0.09  
Year to date precipitation 5.90 10.15  
Sea Level Pressure  
Sea Level Pressure 30.17 in    
Wind  
Wind Speed 11 mph (WNW)    
Max Wind Speed 28 mph    
Max Gust Speed 35 mph    
Visibility 10 miles    
Events      
T = Trace of Precipitation, MM = Missing Value Source: NWS Daily Summary

Daily Weather History Graph

Daily Weather History Graph

Search for Another Location

Airport:

Trip Planner

Search our weather history database for the weather conditions in past years. The results will help you decide how hot, cold, wet, or windy it might be!

Date:

Astronomy

Nov. 04, 2012 Rise Set
Actual Time 6:38 AM MST 4:53 PM MST
Civil Twilight 6:09 AM MST 5:22 PM MST
Nautical Twilight 5:36 AM MST 5:55 PM MST
Astronomical Twilight 5:04 AM MST 6:27 PM MST
Moon 9:33 PM MST (11/4) 11:24 AM MST (11/4)
Length of Visible Light 11h 13m
Length of Day
10h 15m
Waning Gibbous, 71% of the Moon is Illuminated
Nov 4
Waning Gibbous
Nov 6
Last Quarter
Nov 13
New
Nov 20
First Quarter
Nov 28
Full

Hourly Weather History & Observations

Time (MST) Temp. Windchill Dew Point Humidity Pressure Visibility Wind Dir Wind Speed Gust Speed Precip Events Conditions
12:53 AM 30.0 °F - 19.0 °F 64% 30.13 in 10.0 mi Calm Calm - N/A   Clear
1:53 AM 28.9 °F 23.9 °F 19.0 °F 67% 30.12 in 10.0 mi South 4.6 mph - N/A   Clear
1:53 AM 32.0 °F 28.7 °F 17.1 °F 54% 30.10 in 10.0 mi WSW 3.5 mph - N/A   Clear
2:53 AM 36.0 °F 27.1 °F 21.0 °F 55% 30.07 in 10.0 mi WNW 13.8 mph - N/A   Clear
3:53 AM 34.0 °F 28.0 °F 19.9 °F 56% 30.10 in 10.0 mi West 6.9 mph - N/A   Clear
4:53 AM 37.9 °F 28.9 °F 19.9 °F 48% 30.13 in 10.0 mi West 16.1 mph - N/A   Clear
5:53 AM 37.0 °F 28.5 °F 19.0 °F 48% 30.16 in 10.0 mi WSW 13.8 mph - N/A   Clear
6:53 AM 35.1 °F 26.9 °F 21.0 °F 57% 30.19 in 10.0 mi SW 11.5 mph - N/A   Clear
7:53 AM 37.0 °F 31.6 °F 21.9 °F 54% 30.19 in 10.0 mi West 6.9 mph - N/A   Clear
8:53 AM 43.0 °F 36.8 °F 24.1 °F 47% 30.19 in 10.0 mi West 11.5 mph - N/A   Clear
9:53 AM 44.1 °F 40.8 °F 26.1 °F 49% 30.20 in 10.0 mi NNE 5.8 mph - N/A   Clear
10:53 AM 48.9 °F - 25.0 °F 39% 30.15 in 10.0 mi West 18.4 mph - N/A   Clear
11:53 AM 52.0 °F - 25.0 °F 35% 30.15 in 10.0 mi NW 15.0 mph 32.2 mph N/A   Clear
12:53 PM 53.1 °F - 23.0 °F 31% 30.14 in 10.0 mi NW 17.3 mph 25.3 mph N/A   Partly Cloudy
1:53 PM 52.0 °F - 25.0 °F 35% 30.14 in 10.0 mi NNW 25.3 mph 29.9 mph N/A   Clear
2:53 PM 51.1 °F - 24.1 °F 35% 30.12 in 10.0 mi NW 21.9 mph 28.8 mph N/A   Mostly Cloudy
3:53 PM 48.9 °F - 26.1 °F 41% 30.17 in 10.0 mi NW 17.3 mph - N/A   Mostly Cloudy
4:53 PM 45.0 °F 38.9 °F 26.1 °F 48% 30.18 in 10.0 mi WNW 12.7 mph - N/A   Partly Cloudy
5:53 PM 45.0 °F 38.5 °F 27.0 °F 49% 30.21 in 10.0 mi WNW 13.8 mph - N/A   Mostly Cloudy
6:53 PM 42.1 °F 37.1 °F 27.0 °F 55% 30.25 in 10.0 mi NNW 8.1 mph - N/A   Mostly Cloudy
7:53 PM 37.0 °F 31.6 °F 25.0 °F 62% 30.28 in 10.0 mi NNW 6.9 mph - N/A   Partly Cloudy
8:53 PM 37.0 °F 31.6 °F 26.1 °F 65% 30.26 in 10.0 mi NW 6.9 mph - N/A   Overcast
10:53 PM 34.0 °F 31.0 °F 25.0 °F 70% 30.23 in 10.0 mi NW 3.5 mph - N/A   Clear